Location: Sungai Bunut
(2.6333°N, 113.7333°E)
Time: 10:15:58
(UTC+00:00)

Transit 2A Rocket - Pass Details

Date: 03 December 2023
Orbit: 590 x 905 km, 66.7° (Epoch: 01 March)

Event Time Altitude Azimuth Distance (km) Brightness Sun altitude
Rises 12:53:11 0° 212° (SSW) 3,347 9.0 -37.4°
Reaches altitude 10° 12:55:49 10° 218° (SW) 2,364 8.1 -38.0°
Enters shadow 12:58:05 23° 231° (SW) 1,587 7.1 -38.5°
Maximum altitude 13:00:55 43° 289° (WNW) 1,041 - -39.1°
Drops below altitude 10° 13:05:35 10° 0° (N) 2,156 - -40.2°
Sets 13:07:55 0° 7° (N) 3,021 - -40.7°
